Погода Сурское

Поиск расширенной информации на нашем сайте:

Полезная информация:

Новости сайта



02.01.2020
Опубликован Долгосрочный прогноз погоды по городам России и ближнего зарубежья на январь 2020 года.
Карты: Прогноз на январь и февраль 2020 года, Сравнение прогнозируемой аномалии приземной температуры воздуха на январь 2020 года по разным моделям.




Погода Сурское - сегодня

Время (UTC), дата Ветер
(°,м/с) 
Видим.   Явления Облачность Т
(°С)
Тd
(°С)
f(%) Тe
(°С)
Pmin
(гПа)
dP
(гПа)
Po
(мм)
O2
(г/м3)
Тmin Tmax R s Состояние
почвы
12 24.02.21 310 (СЗ) 20000 м    8/0 средняя 
[Ac trans]
-19.4 -24.8 62 -24  1038.6  -0.8  769  335           
18 24.02.21 тихо ()   20000 м    3/0 верхняя 
[Ci fib]
-26.5 -29.1 79 -27  1037.7  -0.7  768  344           
21 24.02.21 тихо ()   20000 м    ясно 
-28.1 -30.6 79 -28  1036.1  -1.7  766  346           
00 25.02.21 тихо ()   20000 м    3/0 верхняя 
[Ci fib]
-29.5 -32.5 75 -30  1034.7  -1.5  765  348           
03 25.02.21 060 (СВ) 20000 м    10/0 средняя 
[Ac As]
-23 -25.5 80 -23  1031.4  -2.9  763  338  -30.8      36  равномерный
сухой снег
100% 
06 25.02.21 170 (Ю) 8000 м  слаб. снег  10/0 средняя 
[As op]
-18.2 -21.1 78 -22  1027.5  -3.5  760  330           
09 25.02.21 170 (Ю) 4000 м  снег  10/10 300 м 
[Frnb|Ns]
-14.8 -17 83 -17  1022.5  -4.7  757  324           
12 25.02.21 180 (Ю) 4000 м  снег  10/10 300 м 
[Frnb|Ns]
-13.5 -15.3 86 -17  1018.8  -3.6  754  321           
15 25.02.21 160 (Ю) 4000 м  слаб. снег  10/10 500 м 
[Frnb|Ns]
-13.7 -15.5 86 -16  1016.9  -1.9  753  321    -13.4     
18 25.02.21 150 (ЮВ) 8000 м  слаб. снег  10/10 500 м 
[Frnb|Ns]
-13.6 -15.5 86 -14  1015.4  -1.5  752  320           
21 25.02.21 080 (В) 8000 м  слаб. снег  10/5 300 м средняя 
[St|As op]
-13.8 -15.2 89 -14  1014.9  -0.5  751  320           
00 26.02.21 060 (СВ) 8000 м  слаб. снег  10/4 300 м средняя 
[St|As op]
-14.1 -15.6 88 -14  1015  0.1  751  321           
03 26.02.21 070 (В) 8000 м  слаб. снег  10/5 300 м средняя 
[St|As op]
-13.9 -15.4 88 -14  1014.9  0.1  751  320  -14.2    0.5  44  равномерный
сухой снег
100% 
06 26.02.21 080 (В) 20000 м  {снег}  10/0 средняя 
[Ac As]
-12.5 -13.9 89 -12  1014.1  -0.7  751  318           
09 26.02.21 080 (В) 20000 м    10/4 600 м средняя 
[Sc|Ac As]
-9 -11.5 82 -12  1012.4  -1.5  750  313           
12 26.02.21 080 (В) 4000 м  слаб. снег  10/0 средняя 
[As op]
-7.5 -9.2 88 -10  1008.4  -3.8  747  310           
15 26.02.21 100 (В) 4000 м  слаб. снег  10/5 300 м средняя 
[St|As op]
-6.8 -8 91 -8  1004.4  -3.9  744  308    -6.5     
18 26.02.21 140 (ЮВ) 7000 м  слаб. переохл. дождь (гололёд){снег} [диам. гололёда 0 мм]  10/0 средняя 
[As op]
-5.7 -6.5 94 -7  999.7  -4.6  740  305           
21 26.02.21 тихо ()   20000 м  {снег, дождь}  10/10 570 м 
[Sc]
-4.1 -4.9 94 -4  996.9  -2.6  738  303           
00 27.02.21 260 (З) 20000 м  {снег, дождь}  10/6 600 м средняя 
[Sc|Ac As]
+2.2 +1 92 +1  996  -0.6  738  295           
03 27.02.21 250 (З) 20000 м    10/0 средняя 
[Ac As]
+2.4 +0.4 87 +1  995  -1  737  294  -7.1    44  равномерный
сухой снег
100% 
06 27.02.21 250 (З) 4000 м  слаб. снег{дождь}  10/0 средняя 
[As op]
+1.5 +0.5 93 994.8  -0.2  737  295           
09 27.02.21 330 (СЗ) 4000 м  слаб. снег{дождь}  10/10 300 м 
[Frnb|Ns]
-1.7 -2.9 91 -6  996.3  1.3  738  299           
12 27.02.21 320 (СЗ) 6-10{12}  20000 м  позёмок{снег}  10/0 средняя 
[As trans]
-9.8 -12.6 80 -15  1001.6  4.8  742  311           
15 27.02.21 330 (СЗ) 4-7{11}  20000 м  позёмок{снег}  10/0 средняя 
[As trans]
-12 -14.6 81 -16  1005.5  3.8  744  315    +2.4     
Время (UTC), дата Ветер
(°,м/с) 
Видим.   Явления Облачность Т
(°С)
Тd
(°С)
f(%) Тe
(°С)
Pmin
(гПа)
dP
(гПа)
Po
(мм)
O2
(г/м3)
Тmin Tmax R s Состояние
почвы

Для получения пояснительной информации подведите курсор к названию столбца.

ПОГОДА Сурское - архив

Всё, что Вы хотите узнать о погоде Сурское - удобно и подробно!

Выберите нужную дату (начиная с 1 января 2019* года) и нажмите кнопку "Найти".
Будут отображены архивные сводки погоды по пункту Сурское, начиная с указанной даты.


Отображать данные в формате CSV (для использования в таблицах Excel)


Внимание! Наш архив погоды предназначен исключительно для личного некоммерческого использования в познавательных целях. Если Вам необходимы официальные справки о состоянии погоды (для производственных, юридических, коммерческих и т.п. целей), обращайтесь в органы Росгидромета.

*Примечание: данная дата относится к архиву по метеостанциям СССР (Россия, СНГ, Балтия).
Архив по метеостанциям Зарубежной Европы и Азии (кроме Китая) хранится 10 дней, по другим регионам земного шара (Китай, Африка, Америка, Австралия, Океания) - 1 день.

Сурское - район местоположения метеостанции


Название, широта, долгота, высота метеостанции:
Сурское 54.5°ш. 46.7°д. 100 м над ур. моря [Российская Федерация]

Дополнительная информация

В oтличие oт бoльшинства пoгoдных сайтoв мы публикуем пoдрoбную метеoинфoрмацию в детальнoм прoфессиoнальнoм фoрмате.

Характеристики температуры и влажнoсти вoздуха измеряются на высoте 2 м в тени вдали oт зданий и деревьев.
Скoрoсть ветра измеряется на высoте 10 м (на урoвне рoста челoвека скoрoсть ветра ниже в 1.5-2 раза). Если метеoстанция нахoдится в гoрoде или в лесу, тo скoрoсть ветра занижена на 2-4 м/с пo сравнению с oткрытым местoм. Скoрoсть ветра над акватoриями крупных рек и oзёр, а также на вершинах хoлмoв на 2-5 м/с выше, чем в oбычных услoвиях.
Атмoсфернoе давление в разных тoчках местнoсти мoжет значительнo oтличаться oт давления на метеoстанции, в зависимoсти oт услoвий рельефа (при пoдъёме на 10 м давление пoнижается примернo на 1 мм рт.ст.).